Weather History for Pincher Creek, AB

Change the Weather History Date:

Friday, September 6, 2013

  Actual Average Record
Temperature  
Mean Temperature 64 °F -  
Max Temperature 68 °F 66 °F 87 °F (1998)
Min Temperature 59 °F 43 °F 32 °F (2010)
Degree Days  
Heating Degree Days 2    
Growing Degree Days 14 (Base 50)    
Moisture  
Dew Point 56 °F    
Average Humidity 81    
Maximum Humidity 94    
Minimum Humidity 56    
Precipitation  
Precipitation 0.00 in - - ()
Sea Level Pressure  
Sea Level Pressure 30.09 in    
Wind  
Wind Speed 7 mph ()    
Max Wind Speed 14 mph    
Max Gust Speed 18 mph    
Visibility 8.2 miles    
Events Rain    
Averages and records for this station are not official NWS values.
T = Trace of Precipitation, MM = Missing Value Source: Averaged Metar Reports

Daily Weather History Graph

Daily Weather History Graph

Search for Another Location

Airport:

Trip Planner

Search our weather history database for the weather conditions in past years. The results will help you decide how hot, cold, wet, or windy it might be!

Date:

Astronomy

Sep. 06, 2013 Rise Set
Actual Time 6:59 AM MDT 8:07 PM MDT
Civil Twilight 6:26 AM MDT 8:40 PM MDT
Nautical Twilight 5:47 AM MDT 9:19 PM MDT
Astronomical Twilight 5:04 AM MDT 10:02 PM MDT
Moon 8:28 AM MDT (9/6) 8:19 PM MDT (9/6)
Length of Visible Light 14h 13m
Length of Day
13h 08m
New Moon, 2% of the Moon is Illuminated
Sep 6
New Moon
Sep 12
First Quarter
Sep 19
Full
Sep 26
Last Quarter
Oct 4
New

Hourly Weather History & Observations

Time (MDT) Temp. Dew Point Humidity Pressure Visibility Wind Dir Wind Speed Gust Speed Precip Events Conditions
12:00 AM 62.6 °F 57.2 °F 82% 29.99 in 9.0 mi West 9.2 mph - N/A   Overcast
1:00 AM 62.6 °F 57.2 °F 82% 29.99 in 9.0 mi Variable 3.5 mph - N/A   Overcast
2:00 AM 60.8 °F 57.2 °F 88% 29.99 in 9.0 mi West 6.9 mph - N/A   Overcast
3:00 AM 59.0 °F 57.2 °F 94% 29.99 in 9.0 mi NNE 9.2 mph - N/A   Mostly Cloudy
4:00 AM 59.0 °F 57.2 °F 94% 30.01 in 9.0 mi WSW 6.9 mph - N/A   Overcast
5:00 AM 60.8 °F 55.4 °F 82% 30.03 in 9.0 mi West 8.1 mph - N/A   Overcast
6:00 AM 59.0 °F 55.4 °F 88% 30.04 in 9.0 mi North - - N/A   Overcast
7:00 AM 60.8 °F 55.4 °F 82% 30.06 in 9.0 mi WNW 4.6 mph - N/A   Overcast
8:00 AM 60.8 °F 57.2 °F 88% 30.09 in 9.0 mi NNW 3.5 mph - N/A   Mostly Cloudy
9:00 AM 64.4 °F 55.4 °F 73% 30.09 in 9.0 mi NE 5.8 mph - N/A   Overcast
10:00 AM 64.4 °F 51.8 °F 64% 30.11 in 9.0 mi NE 12.7 mph - N/A   Overcast
11:00 AM 66.2 °F 51.8 °F 60% 30.12 in 9.0 mi NE 11.5 mph - N/A   Overcast
12:00 PM 66.2 °F 51.8 °F 60% 30.12 in 9.0 mi East 8.1 mph - N/A   Overcast
1:00 PM 66.2 °F 53.6 °F 64% 30.12 in 9.0 mi ENE 9.2 mph - N/A   Overcast
2:00 PM 66.2 °F 51.8 °F 60% 30.12 in 9.0 mi NE 9.2 mph 18.4 mph N/A   Overcast
3:00 PM 68.0 °F 51.8 °F 56% 30.07 in 9.0 mi NNE 9.2 mph - N/A   Overcast
3:30 PM 66.2 °F 55.4 °F 68% 30.07 in 5.0 mi North 9.2 mph - N/A   Haze
3:31 PM 66.2 °F 55.4 °F 68% 30.07 in 5.0 mi North 9.2 mph - N/A Rain Light Rain
3:39 PM 62.6 °F 55.4 °F 77% 30.08 in 7.0 mi NNW 10.4 mph - N/A Rain Light Rain
3:50 PM 60.8 °F 55.4 °F 82% 30.11 in 9.0 mi West 12.7 mph - N/A Rain Light Rain
3:51 PM 60.8 °F 57.2 °F 88% 30.11 in 9.0 mi West 13.8 mph - N/A Rain Heavy Rain
3:58 PM 60.8 °F 55.4 °F 82% 30.13 in 5.0 mi West 11.5 mph 18.4 mph N/A Rain Heavy Rain
4:00 PM 60.8 °F 55.4 °F 82% 30.12 in 5.0 mi NW 9.2 mph 18.4 mph N/A Rain Heavy Rain
4:07 PM 59.0 °F 55.4 °F 88% 30.10 in 3.0 mi North 11.5 mph - N/A Rain Light Rain
4:13 PM 59.0 °F 55.4 °F 88% 30.12 in 6.0 mi NNE 6.9 mph - N/A Rain Light Rain
5:00 PM 59.0 °F 57.2 °F 94% 30.09 in 9.0 mi WNW 10.4 mph - N/A Rain Light Rain
5:05 PM 59.0 °F 57.2 °F 94% 30.09 in 9.0 mi West 11.5 mph - N/A   Mostly Cloudy
5:26 PM 59.0 °F 57.2 °F 94% 30.10 in 9.0 mi NNE 5.8 mph - N/A Rain Light Rain
6:00 PM 60.8 °F 57.2 °F 88% 30.11 in 9.0 mi NW 8.1 mph - N/A Rain Light Rain
6:05 PM 62.6 °F 57.2 °F 82% 30.11 in 9.0 mi NW 6.9 mph - N/A   Mostly Cloudy
7:00 PM 60.8 °F 57.2 °F 88% 30.11 in 9.0 mi NW 4.6 mph - N/A   Mostly Cloudy
8:00 PM 60.8 °F 57.2 °F 88% 30.13 in 9.0 mi WNW 6.9 mph - N/A   Overcast
9:00 PM 59.0 °F 55.4 °F 88% 30.13 in 9.0 mi NNW 8.1 mph - N/A   Overcast
10:00 PM 59.0 °F 55.4 °F 88% 30.14 in 9.0 mi NNW 9.2 mph - N/A   Overcast
11:00 PM 59.0 °F 55.4 °F 88% 30.16 in 9.0 mi NNW 8.1 mph - N/A   Mostly Cloudy